Regional Weather Roundup
Issued by NWS

Home | Current Version | Previous Version | Text Only | Print | Product List | Glossary On
Versions: 1 2 3 4 5 6 7 8 9 10 11 12 13 14 15 16 17 18 19 20 21 22 23 24 25 26 27 28 29 30 31 32 33 34 35 36 37 38 39 40 41 42 43 44 45 46 47 48 49 50
000
ASUS43 KDMX 020107
RWRIA

WEATHER ROUNDUP FOR IOWA
NATIONAL WEATHER SERVICE DES MOINES IA
800 PM CDT WED JUL 01 2015

NOTE: "FAIR" INDICATES FEW OR NO CLOUDS BELOW 12,000 FEET WITH NO
SIGNIFICANT WEATHER AND/OR OBSTRUCTIONS TO VISIBILITY.

* - THESE STATIONS ARE NOT NWS STATIONS...THUS NOT UNDER NWS
QUALITY CONTROL.  THEY ALSO DO NOT REPORT WEATHER SUCH
AS PRECIPITATION OR FOG.

IAZ001>003-012>014-020>022-031>034-043>046-020200-
   NORTHWEST IOWA

CITY           SKY/WX    TMP DP  RH WIND       PRES   REMARKS
CARROLL *      CLOUDY    70  59  68 E10G17    29.94R
CHEROKEE *     CLOUDY    70  57  64 E6        29.96R
DENISON *      CLOUDY    70  66  88 NE6       29.92R
LE MARS *      CLOUDY    72  63  73 E12G17    29.95S
ORANGE CITY *  CLOUDY    70  57  64 E7        29.96S
SHELDON *      CLOUDY    70  59  68 SE6       29.96S
SIOUX CITY     CLOUDY    74  64  71 E10       29.92R
SPENCER        PTCLDY    69  55  60 E13       29.98R
STORM LAKE *   MOCLDY    68  55  64 E8        29.97S
$$

IAZ055>058-069>071-079>083-090>094-020200-
   SOUTHWEST IOWA

CITY           SKY/WX    TMP DP  RH WIND       PRES   REMARKS
ATLANTIC *     CLOUDY    73  66  78 NE10G17   29.91R
AUDUBON *      PTCLDY    70  64  83 E7        29.94S
CLARINDA *     CLEAR     79  70  73 NE13      29.87S HX  81
COUNCIL BLFS * MOCLDY    75  70  83 E10G16    29.90R
CRESTON *      PTCLDY    72  66  83 E16       29.90S
HARLAN  *      PTCLDY    72  72 100 NE9G15    29.95R
LAMONI         PTCLDY    73  67  81 NE9       29.88S
RED OAK *      PTCLDY    75  70  83 NE14G21   29.88R
SHENANDOAH *   PTCLDY    79  70  73 NE10G17   29.86R HX  81
$$

IAZ047>049-059>061-072>074-084-020200-
   CENTRAL IOWA

CITY           SKY/WX    TMP DP  RH WIND       PRES   REMARKS
AMES           MOCLDY    68  57  68 E6        29.94S
ANKENY *       CLOUDY    70  59  68 NE8       29.93R
CHARITON *     MOCLDY    72  66  83 E9        29.91S
DES MOINES     CLOUDY    72  58  61 E9        29.92R
GRINNELL*      MOCLDY    68  57  68 NE13      29.94S
KNOXVILLE *    CLOUDY    72  59  64 E8        29.91S
MARSHALLTOWN   CLOUDY    65  53  65 E8        29.95R
PELLA *        CLOUDY    70  63  78 CALM      29.94R
PERRY *        CLOUDY    70  57  64 E10       29.94R
$$

IAZ004>006-015-016-023>025-035-036-020200-
   NORTH CENTRAL IOWA

CITY           SKY/WX    TMP DP  RH WIND       PRES   REMARKS
ALGONA *       CLEAR     66  52  59 E8        29.99R
CLARION *      PTCLDY    64  55  72 E8        29.98R
ESTHERVILLE    MOCLDY    65  54  67 E7        29.99R
FORT DODGE *   CLEAR     66  54  63 E8        29.97S
MASON CITY     PTCLDY    63  55  75 E6        30.00S
FOREST CITY *  CLEAR     63  54  72 E3        29.99S
IOWA FALLS *   CLOUDY    64  55  72 NE6       29.99R
$$

IAZ007>011-017>019-026>030-037>042-050>054-066-020200-
   NORTHEAST IOWA

CITY           SKY/WX    TMP DP  RH WIND       PRES   REMARKS
CEDAR RAPIDS   CLOUDY    66  58  75 NE9       29.95R
CHARLES CITY * MOCLDY    63  55  77 NE8       30.00R
CLINTON *      CLOUDY    64  57  77 NE6       29.98S
DECORAH *        N/A    N/A N/A N/A MISG        N/A
DUBUQUE        CLOUDY    63  53  70 NE7       29.98R
MONTICELLO *   CLOUDY    64 N/A N/A CALM      29.97R
OELWEIN *        N/A     63  55  77 NE7       29.99S
WATERLOO       CLOUDY    63  55  75 NE7       29.96S
$$

IAZ064-065-067-068-078-020200-
   EAST CENTRAL IOWA

CITY           SKY/WX    TMP DP  RH WIND       PRES   REMARKS
DAVENPORT      CLOUDY    67  57  70 NE8       29.96R
IOWA CITY      CLOUDY    68  59  73 NE10      29.95R
MT. PLEASANT * CLOUDY    72  61  68 NE6       29.92S
MUSCATINE *    CLOUDY    72  59  64 NE12      29.93S
QUAD CITIES    MOCLDY    70  55  59 NE6       29.94R
$$

IAZ062-063-075>077-085>089-095>099-020200-
   SOUTHEAST IOWA

CITY           SKY/WX    TMP DP  RH WIND       PRES   REMARKS
BURLINGTON     CLOUDY    71  64  78 NE10      29.91S
FAIRFIELD *    CLOUDY    66  61  82 NE7       29.93R
FORT MADISON * CLOUDY    70  64  83 NE7       29.92S
KEOKUK *       PTCLDY    73  68  83 NE10      29.89F
OSKALOOSA *    CLOUDY    68  63  83 E5        29.93R
CENTERVILLE *  CLEAR     72  64  78 NE12      29.91F
OTTUMWA        CLOUDY    70  63  78 NE10      29.91R
WASHINGTON *   MOCLDY    70  63  78 E7        29.94S
$$

ABBREVIATIONS USED IN REMARKS
   TC - TEMPERATURES IN CELSIUS
  WCI - WIND CHILL INDEX
   HX - HEAT INDEX
  VSB - VISIBILITY
$$



USA.gov is the U.S. government's official web portal to all federal, state and local government web resources and services.